FW9692 Weather Reports


time (UTC)temp
F
wind
direction
speed
knots
gust
knots
rain 1hr
in
rain 24hr
in
rain mn
in
humidity
%
barometer
mb
20260510013024 89 151 12.2 15.6 0.00 0.00 0.00 10 994.9
20260510011522 90 144 14.8 17.4 0.00 0.00 0.00 10 994.7
20260510010019 91 132 10.4 16.5 0.00 0.00 0.00 9 994.7
20260510004526 93 203 6.1 13.9 0.00 0.00 0.00 8 994.8
20260510003026 93 187 7.0 13.9 0.00 0.00 0.00 8 994.8
20260510001522 93 193 4.3 17.4 0.00 0.00 0.00 8 994.8
20260510000028 93 177 9.6 13.9 0.00 0.00 0.00 8 994.9
20260509234519 93 173 8.7 18.2 0.00 0.00 0.00 8 994.9
20260509233016 93 198 8.7 15.6 0.00 0.00 0.00 8 995.1
20260509231515 93 243 7.8 13.9 0.00 0.00 0.00 8 995.2
20260509230015 93 221 7.0 12.2 0.00 0.00 0.00 8 995.3
20260509224512 93 210 6.1 13.0 0.00 0.00 0.00 8 995.5
20260509223016 93 213 9.6 20.0 0.00 0.00 0.00 8 995.6
20260509221515 92 301 2.6 13.0 0.00 0.00 0.00 8 995.8
20260509220017 92 219 7.8 13.9 0.00 0.00 0.00 8 995.9
20260509214508 92 208 12.2 22.6 0.00 0.00 0.00 9 996.1
20260509213051 92 170 5.2 13.9 0.00 0.00 0.00 9 996.3
20260509211549 92 103 5.2 15.6 0.00 0.00 0.00 9 996.6
20260509210049 93 171 7.8 9.6 0.00 0.00 0.00 9 996.9
20260509204546 92 232 4.3 8.7 0.00 0.00 0.00 9 997.3
20260509203100 91 221 6.1 15.6 0.00 0.00 0.00 10 997.6
20260509201548 91 211 2.6 10.4 0.00 0.00 0.00 11 997.9
20260509200047 90 226 8.7 18.2 0.00 0.00 0.00 12 998.1
20260509194548 91 205 1.7 10.4 0.00 0.00 0.00 11 998.1
20260509193040 90 230 10.4 17.4 0.00 0.00 0.00 11 998.4
20260509191556 90 225 8.7 15.6 0.00 0.00 0.00 12 998.6
20260509190035 89 142 1.7 12.2 0.00 0.00 0.00 13 998.7
20260509184544 89 265 7.0 19.1 0.00 0.00 0.00 12 999.1
20260509183052 89 228 13.0 20.9 0.00 0.00 0.00 14 999.3
20260509181542 88 207 13.0 18.2 0.00 0.00 0.00 14 999.6
20260509180041 87 178 10.4 15.6 0.00 0.00 0.00 16 999.7
20260509174558 86 219 13.9 18.2 0.00 0.00 0.00 17 999.9
20260509173019 86 141 9.6 22.6 0.00 0.00 0.00 18 1000.1
20260509171517 85 182 13.9 18.2 0.00 0.00 0.00 19 1000.3
20260509170022 84 175 9.6 14.8 0.00 0.00 0.00 20 1000.5
20260509164514 83 169 10.4 16.5 0.00 0.00 0.00 20 1000.6
20260509163032 82 168 12.2 16.5 0.00 0.00 0.00 21 1000.6
20260509161518 81 185 13.9 17.4 0.00 0.00 0.00 22 1000.6
20260509160015 80 169 11.3 15.6 0.00 0.00 0.00 24 1000.7
20260509154511 78 185 10.4 15.6 0.00 0.00 0.00 26 1000.9
20260509153022 76 186 10.4 13.0 0.00 0.00 0.00 27 1001.0
20260509151514 75 160 12.2 15.6 0.00 0.00 0.00 28 1001.2
20260509150012 74 166 13.0 16.5 0.00 0.00 0.00 29 1001.4
20260509144507 72 192 8.7 10.4 0.00 0.00 0.00 31 1001.4
20260509143011 70 195 9.6 12.2 0.00 0.00 0.00 33 1001.6
20260509141511 68 198 8.7 11.3 0.00 0.00 0.00 36 1001.5
20260509140012 67 213 10.4 12.2 0.00 0.00 0.00 36 1001.4
20260509134508 67 207 9.6 14.8 0.00 0.00 0.00 36 1001.3
20260509133044 66 195 10.4 13.9 0.00 0.00 0.00 36 1001.2
20260509131543 65 191 7.8 9.6 0.00 0.00 0.00 39 1001.1
20260509130046 64 171 8.7 10.4 0.00 0.00 0.00 41 1001.0
20260509124548 63 159 9.6 12.2 0.00 0.00 0.00 42 1001.0
20260509123006 62 173 7.8 11.3 0.00 0.00 0.00 43 1000.6
20260509121509 62 196 8.7 12.2 0.00 0.00 0.00 45 1000.3
20260509120002 62 165 8.7 9.6 0.00 0.00 0.00 45 1000.3
20260509114603 64 156 6.1 11.3 0.00 0.00 0.00 43 1000.3
20260509113058 65 146 7.8 11.3 0.00 0.00 0.00 42 1000.2
20260509111553 65 140 8.7 10.4 0.00 0.00 0.00 42 1000.1
20260509104518 64 116 5.2 7.8 0.00 0.00 0.00 44 1000.0
20260509103014 65 139 6.1 9.6 0.00 0.00 0.00 43 999.8
20260509101521 66 136 7.8 9.6 0.00 0.00 0.00 40 999.8
20260509094556 68 149 7.0 13.0 0.00 0.00 0.00 37 999.8
20260509093043 67 249 10.4 13.0 0.00 0.00 0.00 39 999.2
20260509091540 68 226 7.8 12.2 0.00 0.00 0.00 38 998.9
20260509084526 70 259 11.3 13.9 0.00 0.00 0.00 35 999.0
20260509083034 69 261 9.6 12.2 0.00 0.00 0.00 35 999.0
20260509081523 69 258 11.3 13.9 0.00 0.00 0.00 35 999.1
20260509074524 69 268 11.3 13.9 0.00 0.00 0.00 36 999.1
20260509073029 68 257 11.3 13.0 0.00 0.00 0.00 37 999.1
20260509071526 69 254 11.3 14.8 0.00 0.00 0.00 37 999.2
20260509064649 69 248 12.2 13.9 0.00 0.00 0.00 37 999.5
20260509063048 70 244 12.2 15.6 0.00 0.00 0.00 37 999.6
20260509061548 70 254 12.2 16.5 0.00 0.00 0.00 36 999.7
20260509054512 69 248 11.3 13.9 0.00 0.00 0.00 37 999.9
20260509053013 69 259 11.3 13.9 0.00 0.00 0.00 38 1000.1
20260509051510 70 248 10.4 13.0 0.00 0.00 0.00 38 1000.1
20260509044518 71 248 10.4 13.9 0.00 0.00 0.00 37 1000.4
20260509043015 71 236 10.4 13.0 0.00 0.00 0.00 37 1000.4
20260509041513 72 240 11.3 14.8 0.00 0.00 0.00 36 1000.4
20260509034530 73 244 12.2 16.5 0.00 0.00 0.00 34 1000.1
20260509033026 74 227 13.0 16.5 0.00 0.00 0.00 33 1000.0
20260509031537 75 228 13.0 19.1 0.00 0.00 0.00 33 999.8
20260509024519 76 228 14.8 18.2 0.00 0.00 0.00 30 999.7
20260509023021 77 225 13.9 19.1 0.00 0.00 0.00 29 999.7
20260509021520 78 223 14.8 20.9 0.00 0.00 0.00 26 999.6
20260509014530 79 194 14.8 20.0 0.00 0.00 0.00 25 999.0